| time (UTC) | temp F | wind direction | speed MPH | gust MPH | rain 1hr in | rain 24hr in | rain mn in | humidity % | barometer mb |
| 20260901234805 | 82 | 231 | 0.0 | 2.0 | 0.00 | 0.00 | 0.00 | 76 | 1018.4 |
| 20260901234306 | 82 | 231 | 1.0 | 5.0 | 0.00 | 0.00 | 0.00 | 76 | 1018.3 |
| 20260901233805 | 82 | 232 | 1.0 | 5.0 | 0.00 | 0.00 | 0.00 | 76 | 1018.3 |
| 20260901233305 | 82 | 248 | 2.0 | 8.0 | 0.00 | 0.00 | 0.00 | 76 | 1018.4 |
| 20260901231805 | 83 | 253 | 1.0 | 5.0 | 0.00 | 0.00 | 0.00 | 76 | 1018.6 |
| 20260901231304 | 83 | 254 | 2.0 | 5.0 | 0.00 | 0.00 | 0.00 | 76 | 1018.6 |
| 20260901230304 | 84 | 251 | 1.0 | 8.0 | 0.00 | 0.00 | 0.00 | 76 | 1018.8 |
| 20260901224804 | 84 | 240 | 4.0 | 7.0 | 0.00 | 0.00 | 0.00 | 76 | 1018.6 |
| 20260901224304 | 84 | 251 | 3.0 | 8.0 | 0.00 | 0.00 | 0.00 | 76 | 1018.6 |
| 20260901223804 | 85 | 251 | 3.0 | 8.0 | 0.00 | 0.00 | 0.00 | 76 | 1018.6 |
| 20260901223305 | 85 | 246 | 2.0 | 8.0 | 0.00 | 0.00 | 0.00 | 76 | 1018.6 |
| 20260901221804 | 85 | 258 | 4.0 | 7.0 | 0.00 | 0.00 | 0.00 | 76 | 1018.7 |
| 20260901221304 | 85 | 248 | 3.0 | 7.0 | 0.00 | 0.00 | 0.00 | 76 | 1018.6 |
| 20260901220805 | 85 | 243 | 3.0 | 7.0 | 0.00 | 0.00 | 0.00 | 76 | 1018.6 |
| 20260901220305 | 85 | 258 | 2.0 | 6.0 | 0.00 | 0.00 | 0.00 | 76 | 1018.7 |
| 20260901214804 | 85 | 231 | 5.0 | 9.0 | 0.00 | 0.00 | 0.00 | 76 | 1018.5 |
| 20260901214305 | 86 | 230 | 3.0 | 8.0 | 0.00 | 0.00 | 0.00 | 76 | 1018.6 |
| 20260901213805 | 86 | 249 | 2.0 | 7.0 | 0.00 | 0.00 | 0.00 | 76 | 1018.5 |
| 20260901213304 | 86 | 257 | 3.0 | 8.0 | 0.00 | 0.00 | 0.00 | 76 | 1018.5 |
| 20260901211805 | 86 | 252 | 2.0 | 8.0 | 0.00 | 0.00 | 0.00 | 76 | 1018.4 |
| 20260901210805 | 87 | 238 | 2.0 | 8.0 | 0.00 | 0.00 | 0.00 | 76 | 1018.6 |
| 20260901210305 | 87 | 200 | 3.0 | 9.0 | 0.00 | 0.00 | 0.00 | 76 | 1018.7 |
| 20260901204304 | 88 | 251 | 2.0 | 8.0 | 0.00 | 0.00 | 0.00 | 76 | 1018.5 |
| 20260901203805 | 88 | 263 | 2.0 | 6.0 | 0.00 | 0.00 | 0.00 | 76 | 1018.5 |
| 20260901203306 | 88 | 250 | 3.0 | 7.0 | 0.00 | 0.00 | 0.00 | 76 | 1018.6 |
| 20260901200805 | 89 | 259 | 5.0 | 9.0 | 0.00 | 0.00 | 0.00 | 76 | 1018.7 |
| 20260901194804 | 89 | 211 | 4.0 | 10.0 | 0.00 | 0.00 | 0.00 | 76 | 1018.8 |
| 20260901194305 | 89 | 242 | 4.0 | 10.0 | 0.00 | 0.00 | 0.00 | 76 | 1018.8 |
| 20260901193805 | 90 | 242 | 5.0 | 10.0 | 0.00 | 0.00 | 0.00 | 76 | 1018.9 |
| 20260901193305 | 90 | 252 | 5.0 | 12.0 | 0.00 | 0.00 | 0.00 | 76 | 1019.0 |
| 20260901191804 | 91 | 227 | 5.0 | 10.0 | 0.00 | 0.00 | 0.00 | 76 | 1019.1 |
| 20260901191305 | 91 | 241 | 3.0 | 10.0 | 0.00 | 0.00 | 0.00 | 76 | 1019.1 |
| 20260901190805 | 91 | 221 | 5.0 | 10.0 | 0.00 | 0.00 | 0.00 | 76 | 1019.1 |
| 20260901190304 | 92 | 223 | 5.0 | 9.0 | 0.00 | 0.01 | 0.00 | 76 | 1019.1 |
| 20260901184805 | 92 | 217 | 5.0 | 10.0 | 0.00 | 0.06 | 0.00 | 76 | 1019.3 |
| 20260901184304 | 92 | 198 | 5.0 | 9.0 | 0.00 | 0.07 | 0.00 | 76 | 1019.4 |
| 20260901183805 | 92 | 230 | 3.0 | 9.0 | 0.00 | 0.12 | 0.00 | 76 | 1019.3 |
| 20260901183304 | 92 | 232 | 5.0 | 9.0 | 0.00 | 0.17 | 0.00 | 76 | 1019.3 |
| 20260901181804 | 92 | 260 | 3.0 | 7.0 | 0.00 | 0.17 | 0.00 | 76 | 1019.4 |
| 20260901181305 | 93 | 215 | 3.0 | 9.0 | 0.00 | 0.17 | 0.00 | 76 | 1019.4 |
| 20260901180805 | 92 | 250 | 5.0 | 9.0 | 0.00 | 0.17 | 0.00 | 76 | 1019.5 |
| 20260901180305 | 93 | 189 | 3.0 | 5.0 | 0.00 | 0.17 | 0.00 | 76 | 1019.4 |
| 20260901174804 | 92 | 206 | 2.0 | 6.0 | 0.00 | 0.17 | 0.00 | 76 | 1019.6 |
| 20260901173805 | 91 | 153 | 2.0 | 6.0 | 0.00 | 0.17 | 0.00 | 76 | 1019.6 |
| 20260901173304 | 89 | 129 | 2.0 | 5.0 | 0.00 | 0.17 | 0.00 | 76 | 1019.6 |
| 20260901171305 | 91 | 154 | 2.0 | 6.0 | 0.00 | 0.17 | 0.00 | 76 | 1019.7 |
| 20260901170805 | 91 | 129 | 3.0 | 8.0 | 0.00 | 0.17 | 0.00 | 76 | 1019.8 |
| 20260901170305 | 92 | 122 | 3.0 | 8.0 | 0.00 | 0.17 | 0.00 | 76 | 1019.7 |
| 20260901164804 | 90 | 134 | 3.0 | 6.0 | 0.00 | 0.17 | 0.00 | 76 | 1019.9 |
| 20260901164304 | 89 | 110 | 1.0 | 5.0 | 0.00 | 0.17 | 0.00 | 76 | 1020.1 |
| 20260901163804 | 90 | 35 | 1.0 | 5.0 | 0.00 | 0.17 | 0.00 | 76 | 1020.1 |
| 20260901163305 | 90 | 16 | 0.0 | 5.0 | 0.00 | 0.17 | 0.00 | 76 | 1020.2 |
| 20260901161805 | 88 | 118 | 1.0 | 2.0 | 0.00 | 0.17 | 0.00 | 76 | 1020.3 |
| 20260901160805 | 87 | 119 | 1.0 | 7.0 | 0.00 | 0.17 | 0.00 | 76 | 1020.4 |
| 20260901160305 | 87 | 122 | 3.0 | 7.0 | 0.00 | 0.17 | 0.00 | 76 | 1020.4 |
| 20260901154804 | 88 | 66 | 2.0 | 6.0 | 0.00 | 0.17 | 0.00 | 76 | 1020.4 |
| 20260901153804 | 88 | 5 | 2.0 | 6.0 | 0.00 | 0.17 | 0.00 | 76 | 1020.4 |
| 20260901153304 | 88 | 81 | 1.0 | 7.0 | 0.00 | 0.17 | 0.00 | 76 | 1020.4 |
| 20260901151804 | 88 | 80 | 1.0 | 5.0 | 0.00 | 0.17 | 0.00 | 76 | 1020.5 |
| 20260901151304 | 88 | 341 | 2.0 | 5.0 | 0.00 | 0.17 | 0.00 | 76 | 1020.5 |
| 20260901150805 | 88 | 107 | 2.0 | 5.0 | 0.00 | 0.17 | 0.00 | 76 | 1020.6 |
| 20260901144804 | 86 | 64 | 2.0 | 5.0 | 0.00 | 0.17 | 0.00 | 76 | 1020.7 |
| 20260901143804 | 86 | 32 | 3.0 | 5.0 | 0.00 | 0.17 | 0.00 | 76 | 1020.6 |
| 20260901141804 | 85 | 29 | 1.0 | 7.0 | 0.00 | 0.17 | 0.00 | 76 | 1020.7 |
| 20260901141304 | 84 | 114 | 3.0 | 7.0 | 0.00 | 0.17 | 0.00 | 76 | 1020.7 |
| 20260901140804 | 83 | 72 | 1.0 | 3.0 | 0.00 | 0.17 | 0.00 | 76 | 1020.7 |
| 20260901140304 | 83 | 47 | 1.0 | 3.0 | 0.00 | 0.17 | 0.00 | 76 | 1020.7 |
| 20260901134804 | 81 | 40 | 1.0 | 3.0 | 0.00 | 0.17 | 0.00 | 76 | 1020.6 |
| 20260901134305 | 81 | 45 | 1.0 | 3.0 | 0.00 | 0.17 | 0.00 | 76 | 1020.7 |
| 20260901133805 | 80 | 96 | 3.0 | 3.0 | 0.00 | 0.17 | 0.00 | 76 | 1020.7 |
| 20260901133304 | 80 | 79 | 1.0 | 2.0 | 0.00 | 0.17 | 0.00 | 76 | 1020.7 |
| 20260901131304 | 78 | 110 | 1.0 | 3.0 | 0.00 | 0.17 | 0.00 | 76 | 1020.6 |
| 20260901130804 | 78 | 112 | 2.0 | 3.0 | 0.00 | 0.17 | 0.00 | 76 | 1020.7 |
| 20260901130305 | 78 | 113 | 2.0 | 5.0 | 0.00 | 0.17 | 0.00 | 76 | 1020.6 |
| 20260901124804 | 77 | 74 | 2.0 | 3.0 | 0.00 | 0.17 | 0.00 | 76 | 1020.6 |
| 20260901124304 | 77 | 160 | 1.0 | 3.0 | 0.00 | 0.17 | 0.00 | 76 | 1020.6 |
| 20260901123805 | 77 | 160 | 2.0 | 3.0 | 0.00 | 0.17 | 0.00 | 76 | 1020.7 |
| 20260901123305 | 77 | 160 | 2.0 | 3.0 | 0.00 | 0.17 | 0.00 | 76 | 1020.5 |
| 20260901121804 | 76 | 160 | 1.0 | 2.0 | 0.00 | 0.17 | 0.00 | 76 | 1020.5 |
| 20260901121304 | 76 | 161 | 0.0 | 2.0 | 0.00 | 0.17 | 0.00 | 76 | 1020.5 |
| 20260901120804 | 75 | 248 | 1.0 | 2.0 | 0.00 | 0.17 | 0.00 | 76 | 1020.4 |
| 20260901120304 | 75 | 248 | 0.0 | 0.0 | 0.00 | 0.17 | 0.00 | 76 | 1020.4 |
| 20260901114805 | 74 | 248 | 0.0 | 0.0 | 0.00 | 0.17 | 0.00 | 76 | 1020.3 |
| 20260901113804 | 74 | 248 | 0.0 | 0.0 | 0.00 | 0.17 | 0.00 | 76 | 1020.2 |
| 20260901113304 | 74 | 248 | 0.0 | 0.0 | 0.00 | 0.17 | 0.00 | 76 | 1020.2 |
| 20260901111805 | 73 | 248 | 0.0 | 0.0 | 0.00 | 0.17 | 0.00 | 76 | 1020.0 |
| 20260901111304 | 73 | 248 | 0.0 | 0.0 | 0.00 | 0.17 | 0.00 | 76 | 1019.9 |
| 20260901110805 | 73 | 248 | 0.0 | 0.0 | 0.00 | 0.17 | 0.00 | 76 | 1019.8 |
| 20260901110304 | 73 | 248 | 0.0 | 0.0 | 0.00 | 0.17 | 0.00 | 76 | 1019.9 |
| 20260901104805 | 73 | 248 | 0.0 | 0.0 | 0.00 | 0.17 | 0.00 | 76 | 1019.8 |
| 20260901104305 | 73 | 248 | 0.0 | 0.0 | 0.00 | 0.17 | 0.00 | 76 | 1019.7 |
| 20260901103804 | 73 | 248 | 0.0 | 0.0 | 0.00 | 0.17 | 0.00 | 76 | 1019.7 |
| 20260901103304 | 73 | 248 | 0.0 | 0.0 | 0.00 | 0.17 | 0.00 | 76 | 1019.6 |
| 20260901101804 | 72 | 248 | 0.0 | 0.0 | 0.00 | 0.17 | 0.00 | 76 | 1019.6 |
| 20260901101304 | 72 | 248 | 0.0 | 0.0 | 0.00 | 0.17 | 0.00 | 76 | 1019.6 |
| 20260901100804 | 72 | 248 | 0.0 | 0.0 | 0.00 | 0.17 | 0.00 | 76 | 1019.5 |
| 20260901100304 | 72 | 248 | 0.0 | 0.0 | 0.00 | 0.17 | 0.00 | 76 | 1019.5 |
| 20260901094804 | 72 | 248 | 0.0 | 0.0 | 0.00 | 0.17 | 0.00 | 76 | 1019.3 |
| 20260901094304 | 72 | 248 | 0.0 | 0.0 | 0.00 | 0.17 | 0.00 | 76 | 1019.3 |
| 20260901093804 | 72 | 248 | 0.0 | 0.0 | 0.00 | 0.17 | 0.00 | 76 | 1019.2 |
| 20260901093304 | 72 | 248 | 0.0 | 0.0 | 0.00 | 0.17 | 0.00 | 76 | 1019.2 |
| 20260901090804 | 73 | 248 | 0.0 | 0.0 | 0.00 | 0.17 | 0.00 | 76 | 1019.3 |
| 20260901083804 | 73 | 248 | 0.0 | 0.0 | 0.00 | 0.17 | 0.00 | 76 | 1019.6 |
| 20260901083305 | 73 | 248 | 0.0 | 0.0 | 0.00 | 0.17 | 0.00 | 76 | 1019.6 |
| 20260901081804 | 73 | 248 | 0.0 | 0.0 | 0.00 | 0.17 | 0.00 | 76 | 1019.6 |
| 20260901081304 | 73 | 248 | 0.0 | 0.0 | 0.00 | 0.17 | 0.00 | 76 | 1019.7 |
| 20260901080804 | 73 | 248 | 0.0 | 0.0 | 0.00 | 0.17 | 0.00 | 76 | 1019.6 |
| 20260901080304 | 73 | 248 | 0.0 | 0.0 | 0.00 | 0.17 | 0.00 | 76 | 1019.6 |
| 20260901073305 | 73 | 248 | 0.0 | 0.0 | 0.00 | 0.17 | 0.00 | 76 | 1019.6 |
| 20260901071305 | 73 | 248 | 0.0 | 0.0 | 0.00 | 0.17 | 0.00 | 76 | 1019.6 |
| 20260901070804 | 73 | 248 | 0.0 | 0.0 | 0.00 | 0.17 | 0.00 | 76 | 1019.6 |
| 20260901070304 | 73 | 248 | 0.0 | 0.0 | 0.00 | 0.17 | 0.00 | 76 | 1019.6 |
| 20260901064805 | 74 | 248 | 0.0 | 0.0 | 0.00 | 0.17 | 0.00 | 76 | 1019.7 |
| 20260901064305 | 74 | 248 | 0.0 | 0.0 | 0.00 | 0.17 | 0.00 | 76 | 1019.7 |
| 20260901063804 | 74 | 248 | 0.0 | 0.0 | 0.00 | 0.17 | 0.00 | 76 | 1019.7 |
| 20260901061804 | 74 | 248 | 0.0 | 0.0 | 0.00 | 0.17 | 0.00 | 76 | 1019.7 |
| 20260901061304 | 74 | 248 | 0.0 | 0.0 | 0.00 | 0.17 | 0.00 | 76 | 1019.8 |
| 20260901060805 | 74 | 248 | 0.0 | 0.0 | 0.00 | 0.17 | 0.00 | 76 | 1019.8 |
| 20260901060304 | 74 | 248 | 0.0 | 0.0 | 0.00 | 0.17 | 0.00 | 76 | 1019.8 |
| 20260901054804 | 74 | 248 | 0.0 | 0.0 | 0.00 | 0.17 | 0.00 | 76 | 1020.0 |
| 20260901053304 | 74 | 248 | 0.0 | 0.0 | 0.00 | 0.17 | 0.00 | 76 | 1020.1 |
| 20260901051804 | 74 | 248 | 0.0 | 0.0 | 0.00 | 0.17 | 0.00 | 76 | 1020.2 |
| 20260901051304 | 74 | 248 | 0.0 | 0.0 | 0.00 | 0.17 | 0.00 | 76 | 1020.3 |
| 20260901050804 | 74 | 248 | 0.0 | 0.0 | 0.00 | 0.17 | 0.00 | 76 | 1020.4 |
| 20260901050304 | 74 | 248 | 0.0 | 0.0 | 0.00 | 0.17 | 0.00 | 76 | 1020.4 |
| 20260901044805 | 75 | 248 | 0.0 | 0.0 | 0.00 | 0.17 | 0.00 | 76 | 1020.4 |
| 20260901044304 | 75 | 248 | 0.0 | 0.0 | 0.00 | 0.17 | 0.00 | 76 | 1020.3 |
| 20260901043805 | 75 | 248 | 0.0 | 0.0 | 0.00 | 0.17 | 0.00 | 76 | 1020.3 |
| 20260901043304 | 75 | 248 | 0.0 | 0.0 | 0.00 | 0.17 | 0.00 | 76 | 1020.4 |
| 20260901041304 | 75 | 248 | 0.0 | 0.0 | 0.00 | 0.17 | 0.00 | 76 | 1020.3 |
| 20260901040841 | 75 | 248 | 0.0 | 0.0 | 0.00 | 0.17 | 0.00 | 76 | 1020.4 |
| 20260901040304 | 75 | 248 | 0.0 | 0.0 | 0.00 | 0.17 | 0.00 | 76 | 1020.4 |
| 20260901034804 | 75 | 248 | 0.0 | 0.0 | 0.00 | 0.17 | 0.17 | 76 | 1020.4 |
| 20260901034305 | 76 | 248 | 0.0 | 0.0 | 0.00 | 0.17 | 0.17 | 76 | 1020.3 |
| 20260901033804 | 76 | 248 | 0.0 | 0.0 | 0.00 | 0.17 | 0.17 | 76 | 1020.3 |
| 20260901033304 | 76 | 248 | 0.0 | 0.0 | 0.00 | 0.17 | 0.17 | 76 | 1020.2 |
| 20260901031805 | 76 | 248 | 0.0 | 0.0 | 0.00 | 0.17 | 0.17 | 76 | 1020.3 |
| 20260901031304 | 76 | 248 | 0.0 | 0.0 | 0.00 | 0.17 | 0.17 | 76 | 1020.3 |
| 20260901024804 | 76 | 248 | 0.0 | 0.0 | 0.00 | 0.17 | 0.17 | 76 | 1020.4 |
| 20260901024304 | 76 | 248 | 0.0 | 0.0 | 0.00 | 0.17 | 0.17 | 76 | 1020.5 |
| 20260901023803 | 76 | 248 | 0.0 | 0.0 | 0.00 | 0.17 | 0.17 | 76 | 1020.5 |
| 20260901023304 | 76 | 248 | 0.0 | 0.0 | 0.00 | 0.17 | 0.17 | 76 | 1020.5 |
| 20260901021804 | 76 | 248 | 0.0 | 0.0 | 0.00 | 0.17 | 0.17 | 76 | 1020.4 |
| 20260901021304 | 77 | 248 | 0.0 | 0.0 | 0.00 | 0.17 | 0.17 | 76 | 1020.4 |
| 20260901020804 | 77 | 248 | 0.0 | 0.0 | 0.00 | 0.17 | 0.17 | 76 | 1020.4 |
| 20260901020304 | 77 | 248 | 0.0 | 0.0 | 0.00 | 0.17 | 0.17 | 76 | 1020.3 |
| 20260901014804 | 77 | 248 | 0.0 | 0.0 | 0.00 | 0.17 | 0.17 | 76 | 1020.2 |
| 20260901013805 | 78 | 248 | 0.0 | 0.0 | 0.00 | 0.17 | 0.17 | 76 | 1020.1 |
| 20260901013305 | 78 | 248 | 0.0 | 0.0 | 0.00 | 0.17 | 0.17 | 76 | 1020.0 |
| 20260901011803 | 78 | 248 | 0.0 | 0.0 | 0.00 | 0.17 | 0.17 | 76 | 1019.9 |
| 20260901011304 | 78 | 248 | 0.0 | 0.0 | 0.00 | 0.17 | 0.17 | 76 | 1019.9 |
| 20260901010804 | 78 | 248 | 0.0 | 0.0 | 0.00 | 0.17 | 0.17 | 76 | 1020.0 |
| 20260901010304 | 79 | 248 | 0.0 | 0.0 | 0.00 | 0.17 | 0.17 | 76 | 1019.9 |
| 20260901004805 | 80 | 248 | 0.0 | 0.0 | 0.00 | 0.17 | 0.17 | 76 | 1019.8 |
| 20260901004304 | 80 | 248 | 0.0 | 1.0 | 0.00 | 0.17 | 0.17 | 76 | 1019.7 |
| 20260901003304 | 81 | 248 | 0.0 | 3.0 | 0.00 | 0.17 | 0.17 | 76 | 1019.7 |
| 20260901001304 | 81 | 245 | 0.0 | 5.0 | 0.00 | 0.17 | 0.17 | 76 | 1019.7 |
| 20260901000804 | 81 | 245 | 1.0 | 5.0 | 0.00 | 0.17 | 0.17 | 76 | 1019.7 |
| 20260901000304 | 81 | 249 | 2.0 | 5.0 | 0.00 | 0.17 | 0.17 | 76 | 1019.7 |